Location: ?
(35.3436°N, 139.3168°E)
Time: 20:32:50
(UTC+00:00)

Cosmos 2251 Rocket - Pass Details

Date: 29 October 2020
Orbit: 765 x 791 km, 74.0° (Epoch: 24 November)

Event Time Altitude Azimuth Distance (km) Brightness Sun altitude
Exits shadow 18:36:23 48° 142° (SE) 1,021 4.2 -30.3°
Maximum altitude 18:37:20 55° 103° (ESE) 940 4.1 -30.1°
Drops below altitude 10° 18:42:33 10° 27° (NNE) 2,348 6.3 -29.0°
Sets 18:44:58 0° 23° (NNE) 3,277 7.1 -28.5°
